APZ706 RKPK-RKPC

Flight info

Callsign APZ706
Flight time 0h 34m
Altitude 19000
Route OPONO3 ENGOT Y572 UPGOS UPGOS2M
Aircraft B738/M-SDE2E3FGHIRWXY/LB1

Departure

Time 2026-05-08 03:19
Airport Gimhae International Airport (RKPK)

Arrival

Time 2026-05-08 03:53
Airport Jeju International Airport (RKPC)
Time Latitude Longitude Altitude Speed Heading
2026-05-08 03:01 35.17098 128.94591 22 ft 0 kts 70°
2026-05-08 03:13 35.17090 128.94563 24 ft 4 kts 70°
2026-05-08 03:13 35.17082 128.94537 25 ft 4 kts 78°
2026-05-08 03:13 35.17084 128.94508 24 ft 4 kts 130°
2026-05-08 03:13 35.17105 128.94492 24 ft 4 kts 167°
2026-05-08 03:14 35.17118 128.94490 24 ft 0 kts 174°
2026-05-08 03:16 35.17116 128.94490 24 ft 2 kts 174°
2026-05-08 03:16 35.17068 128.94496 24 ft 12 kts 174°
2026-05-08 03:17 35.16996 128.94448 22 ft 13 kts 256°
2026-05-08 03:17 35.16986 128.94339 22 ft 13 kts 263°
2026-05-08 03:17 35.16976 128.94232 22 ft 12 kts 264°
2026-05-08 03:17 35.16967 128.94128 22 ft 12 kts 264°
2026-05-08 03:18 35.17003 128.94052 23 ft 12 kts 346°
2026-05-08 03:18 35.17028 128.94049 21 ft 0 kts 355°
2026-05-08 03:19 35.17083 128.94043 21 ft 34 kts 353°
2026-05-08 03:19 35.17576 128.93979 27 ft 105 kts 354°
2026-05-08 03:19 35.18503 128.93832 123 ft 154 kts 350°
2026-05-08 03:19 35.19572 128.93655 912 ft 155 kts 344°
2026-05-08 03:20 35.20435 128.92986 1713 ft 154 kts 300°
2026-05-08 03:20 35.20860 128.91764 2530 ft 159 kts 295°
2026-05-08 03:20 35.21303 128.90473 3187 ft 176 kts 298°
2026-05-08 03:20 35.21869 128.89008 3396 ft 204 kts 298°
2026-05-08 03:21 35.22510 128.87416 3844 ft 221 kts 298°
2026-05-08 03:21 35.22930 128.85522 4375 ft 245 kts 271°
2026-05-08 03:21 35.22425 128.83489 5380 ft 255 kts 245°
2026-05-08 03:21 35.21207 128.81831 6272 ft 274 kts 225°
2026-05-08 03:22 35.19620 128.80468 7088 ft 280 kts 220°
2026-05-08 03:22 35.17979 128.79179 8069 ft 280 kts 220°
2026-05-08 03:22 35.16356 128.77921 9010 ft 279 kts 219°
2026-05-08 03:22 35.14724 128.76650 9942 ft 276 kts 219°
2026-05-08 03:23 35.13644 128.75805 10365 ft 282 kts 221°
2026-05-08 03:23 35.12861 128.75185 10531 ft 291 kts 220°
2026-05-08 03:23 35.11088 128.73769 10736 ft 316 kts 220°
2026-05-08 03:23 35.09181 128.72241 10928 ft 339 kts 220°
2026-05-08 03:24 35.07151 128.70619 11273 ft 355 kts 219°
2026-05-08 03:24 35.05092 128.68982 11961 ft 359 kts 219°
2026-05-08 03:24 35.02989 128.67312 12784 ft 360 kts 220°
2026-05-08 03:24 35.00881 128.65636 13575 ft 362 kts 220°
2026-05-08 03:25 34.98756 128.63942 14222 ft 366 kts 220°
2026-05-08 03:25 34.96613 128.62232 14913 ft 367 kts 220°
2026-05-08 03:25 34.94475 128.60529 15685 ft 368 kts 220°
2026-05-08 03:25 34.92346 128.58831 16316 ft 372 kts 221°
2026-05-08 03:26 34.90161 128.57089 16968 ft 375 kts 221°
2026-05-08 03:26 34.87967 128.55341 17596 ft 378 kts 221°
2026-05-08 03:26 34.85777 128.53597 18252 ft 380 kts 221°
2026-05-08 03:26 34.83541 128.51818 18756 ft 384 kts 221°
2026-05-08 03:27 34.81343 128.49949 18979 ft 381 kts 227°
2026-05-08 03:27 34.79416 128.47721 19011 ft 382 kts 236°
2026-05-08 03:27 34.77691 128.45293 19015 ft 386 kts 236°
2026-05-08 03:27 34.75932 128.42813 19021 ft 385 kts 236°
2026-05-08 03:28 34.74171 128.40340 19018 ft 385 kts 236°
2026-05-08 03:28 34.72435 128.37912 19019 ft 385 kts 236°
2026-05-08 03:28 34.70673 128.35457 19024 ft 385 kts 236°
2026-05-08 03:28 34.68909 128.33004 19028 ft 386 kts 236°
2026-05-08 03:29 34.67139 128.30549 19028 ft 386 kts 236°
2026-05-08 03:29 34.65363 128.28087 19028 ft 386 kts 236°
2026-05-08 03:29 34.63590 128.25633 19027 ft 386 kts 236°
2026-05-08 03:29 34.61823 128.23187 19031 ft 386 kts 236°
2026-05-08 03:30 34.58275 128.18283 19029 ft 386 kts 236°
2026-05-08 03:30 34.54747 128.13415 19031 ft 387 kts 236°
2026-05-08 03:31 34.51335 128.08712 19040 ft 387 kts 236°
2026-05-08 03:31 34.47770 128.03805 19043 ft 388 kts 236°
2026-05-08 03:32 34.46000 128.01372 19048 ft 388 kts 236°
2026-05-08 03:32 34.44214 127.98917 19048 ft 388 kts 236°
2026-05-08 03:32 34.42424 127.96460 19050 ft 388 kts 236°
2026-05-08 03:32 34.40635 127.94005 19049 ft 389 kts 236°
2026-05-08 03:33 34.38844 127.91549 19046 ft 389 kts 236°
2026-05-08 03:33 34.37052 127.89093 19047 ft 389 kts 236°
2026-05-08 03:33 34.35257 127.86635 19054 ft 389 kts 236°
2026-05-08 03:33 34.33462 127.84179 19055 ft 389 kts 236°
2026-05-08 03:34 34.31700 127.81773 19019 ft 380 kts 236°
2026-05-08 03:34 34.29973 127.79421 18916 ft 365 kts 236°
2026-05-08 03:34 34.28317 127.77163 18685 ft 354 kts 236°
2026-05-08 03:34 34.26687 127.74935 18113 ft 353 kts 236°
2026-05-08 03:35 34.25050 127.72694 17419 ft 355 kts 236°
2026-05-08 03:35 34.23414 127.70458 16842 ft 353 kts 236°
2026-05-08 03:35 34.21809 127.68270 16319 ft 351 kts 236°
2026-05-08 03:35 34.20191 127.66066 15791 ft 349 kts 235°
2026-05-08 03:36 34.18579 127.63871 15257 ft 348 kts 235°
2026-05-08 03:36 34.16974 127.61684 14736 ft 347 kts 235°
2026-05-08 03:36 34.15371 127.59503 14228 ft 346 kts 234°
2026-05-08 03:36 34.13775 127.57330 13715 ft 345 kts 234°
2026-05-08 03:37 34.12197 127.55187 13245 ft 344 kts 234°
2026-05-08 03:37 34.10631 127.53063 13090 ft 332 kts 234°
2026-05-08 03:37 34.09120 127.51018 12993 ft 319 kts 234°
2026-05-08 03:37 34.07668 127.49052 12901 ft 307 kts 235°
2026-05-08 03:38 34.06272 127.47159 12817 ft 296 kts 235°
2026-05-08 03:38 34.04942 127.45356 12735 ft 285 kts 236°
2026-05-08 03:38 34.03645 127.43595 12658 ft 275 kts 236°
2026-05-08 03:38 34.02387 127.41887 12439 ft 270 kts 236°
2026-05-08 03:39 34.01135 127.40187 12100 ft 271 kts 236°
2026-05-08 03:39 33.99897 127.38508 11763 ft 271 kts 236°
2026-05-08 03:39 33.98642 127.36809 11453 ft 271 kts 236°
2026-05-08 03:39 33.97386 127.35112 11131 ft 271 kts 236°
2026-05-08 03:40 33.96133 127.33415 10808 ft 271 kts 237°
2026-05-08 03:40 33.95012 127.31615 10511 ft 266 kts 243°
2026-05-08 03:40 33.93999 127.29752 10225 ft 264 kts 244°
2026-05-08 03:40 33.93009 127.27882 9918 ft 264 kts 245°
2026-05-08 03:41 33.92034 127.26036 9579 ft 265 kts 244°
2026-05-08 03:41 33.91039 127.24162 9231 ft 265 kts 245°
2026-05-08 03:41 33.90039 127.22287 8893 ft 266 kts 244°
2026-05-08 03:41 33.89035 127.20412 8569 ft 266 kts 244°
2026-05-08 03:42 33.88026 127.18535 8245 ft 267 kts 244°
2026-05-08 03:42 33.87013 127.16653 7918 ft 267 kts 244°
2026-05-08 03:42 33.86012 127.14798 7634 ft 267 kts 244°
2026-05-08 03:42 33.85000 127.12926 7338 ft 267 kts 245°
2026-05-08 03:43 33.83986 127.11051 7035 ft 267 kts 245°
2026-05-08 03:43 33.82970 127.09174 6738 ft 268 kts 244°
2026-05-08 03:43 33.81952 127.07295 6442 ft 268 kts 245°
2026-05-08 03:43 33.80930 127.05410 6104 ft 268 kts 245°
2026-05-08 03:44 33.79920 127.03546 5772 ft 269 kts 244°
2026-05-08 03:44 33.78894 127.01655 5454 ft 270 kts 244°
2026-05-08 03:44 33.77865 126.99760 5144 ft 270 kts 244°
2026-05-08 03:44 33.76834 126.97863 4828 ft 271 kts 245°
2026-05-08 03:45 33.75802 126.95966 4557 ft 269 kts 244°
2026-05-08 03:45 33.74780 126.94089 4312 ft 267 kts 244°
2026-05-08 03:45 33.73775 126.92242 4099 ft 265 kts 244°
2026-05-08 03:45 33.72765 126.90388 4054 ft 265 kts 244°
2026-05-08 03:46 33.71761 126.88545 4040 ft 262 kts 244°
2026-05-08 03:46 33.70773 126.86735 4029 ft 252 kts 244°
2026-05-08 03:46 33.69844 126.85037 4024 ft 240 kts 244°
2026-05-08 03:46 33.68941 126.83380 4046 ft 235 kts 244°
2026-05-08 03:47 33.68063 126.81770 4063 ft 224 kts 245°
2026-05-08 03:47 33.67216 126.80276 4036 ft 209 kts 243°
2026-05-08 03:47 33.66433 126.78856 4064 ft 201 kts 246°
2026-05-08 03:47 33.65685 126.77419 4080 ft 209 kts 247°
2026-05-08 03:48 33.64908 126.75912 4082 ft 213 kts 247°
2026-05-08 03:48 33.64129 126.74401 4071 ft 211 kts 247°
2026-05-08 03:48 33.63359 126.72906 4056 ft 209 kts 247°
2026-05-08 03:48 33.62597 126.71425 4060 ft 208 kts 247°
2026-05-08 03:49 33.61840 126.69946 3976 ft 213 kts 246°
2026-05-08 03:49 33.61052 126.68409 3699 ft 217 kts 246°
2026-05-08 03:49 33.60265 126.66882 3411 ft 212 kts 245°
2026-05-08 03:49 33.59497 126.65390 3127 ft 207 kts 246°
2026-05-08 03:50 33.58757 126.63950 2857 ft 202 kts 245°
2026-05-08 03:50 33.58028 126.62530 2582 ft 197 kts 245°
2026-05-08 03:50 33.57319 126.61149 2317 ft 190 kts 245°
2026-05-08 03:50 33.56649 126.59844 2093 ft 176 kts 246°
2026-05-08 03:51 33.56033 126.58644 1835 ft 162 kts 248°
2026-05-08 03:51 33.55454 126.57517 1627 ft 158 kts 246°
2026-05-08 03:51 33.54889 126.56405 1408 ft 157 kts 243°
2026-05-08 03:51 33.54322 126.55295 1174 ft 154 kts 242°
2026-05-08 03:52 33.53775 126.54231 973 ft 146 kts 242°
2026-05-08 03:52 33.53241 126.53191 745 ft 146 kts 241°
2026-05-08 03:52 33.52712 126.52182 528 ft 144 kts 242°
2026-05-08 03:52 33.52184 126.51148 326 ft 146 kts 242°
2026-05-08 03:53 33.51667 126.50092 170 ft 147 kts 243°
2026-05-08 03:53 33.51133 126.49078 90 ft 136 kts 239°
2026-05-08 03:53 33.50742 126.48305 91 ft 77 kts 238°
2026-05-08 03:53 33.50557 126.47945 89 ft 39 kts 238°
2026-05-08 03:54 33.50443 126.47753 94 ft 23 kts 207°
2026-05-08 03:54 33.50322 126.47827 93 ft 22 kts 101°
2026-05-08 03:54 33.50384 126.47988 91 ft 21 kts 57°
2026-05-08 03:54 33.50462 126.48137 91 ft 21 kts 59°
2026-05-08 03:55 33.50535 126.48283 91 ft 20 kts 59°
2026-05-08 03:55 33.50606 126.48423 87 ft 19 kts 58°
2026-05-08 03:55 33.50677 126.48558 92 ft 19 kts 58°
2026-05-08 03:55 33.50744 126.48690 92 ft 18 kts 58°
2026-05-08 03:56 33.50798 126.48813 92 ft 15 kts 86°
2026-05-08 03:56 33.50740 126.48890 92 ft 8 kts 149°
2026-05-08 03:56 33.50686 126.48910 89 ft 9 kts 187°
2026-05-08 03:56 33.50632 126.48940 87 ft 7 kts 150°
2026-05-08 03:57 33.50610 126.48955 90 ft 0 kts 150°